AirNav   SIMCOM
 
 601 users online  

07ID Shepard Strip Airport
Oldtown, Idaho, USA


FAA INFORMATION EFFECTIVE 12 OCTOBER 2017

Location

FAA Identifier: 07ID
Lat/Long: 48-08-57.1560N / 116-59-52.8480W
48-08.952600N / 116-59.880800W
48.1492100 / -116.9980133
(estimated)
Elevation: 2313.3 ft. / 705 m
From city: 3 miles SE of OLDTOWN, ID
Time zone: UTC -7 (UTC -8 during Standard Time)
Zip code: 83822

Airport Operations

Airport use: Private use. Permission required prior to landing
Activation date: 07/2016
Control tower: no
ARTCC: SEATTLE CENTER
FSS: BOISE FLIGHT SERVICE STATION
Attendance: 
Segmented circle: no

Airport Communications

WX AWOS-3 at SZT (20 nm NE): 135.425 (208-263-3074)

Nearby radio navigation aids

VOR radial/distance  VOR name  Freq  Var
COEr323/23.6COEUR D'ALENE VOR/DME108.8019E

 
NDB name  Hdg/Dist  Freq  Var  ID
SANDPOE230/19.326414ESZT ... --.. -
DEER PARK042/20.336516EDPY -.. .--. -.--
IONE133/37.537921EION .. --- -.

Airport Services

Runway Information

Runway 18/36

Dimensions: 1955 x 110 ft. / 596 x 34 m
Surface: turf
RUNWAY 18  RUNWAY 36
Latitude: 48-09.113317N48-08.791867N
Longitude: 116-59.876800W116-59.884800W
Elevation: 2313.3 ft.2297.8 ft.
Traffic pattern: leftleft

Airport Ownership and Management from official FAA records

Ownership: Privately-owned
Owner: DANIEL R. (JR) SHEPARD, JR.
94 SHEPARD ROAD
OLDTOWN, ID
Phone 208 659 6193
Manager: DANIEL R. (JR) SHEPARD
94 SHEPARD ROAD
ODTOWN, ID 83822

Instrument Procedures

There are no published instrument procedures at 07ID.

Some nearby airports with instrument procedures:

KSZT - Sandpoint Airport (20 nm NE)
KDEW - Deer Park Airport (20 nm SW)
KCOE - Coeur d'Alene Airport - Pappy Boyington Field (24 nm S)
KSFF - Felts Field Airport (31 nm SW)
KGEG - Spokane International Airport (38 nm SW)
 
Loc | Ops | Rwys | IFR | FBO | Links
Com | Nav | Svcs | Stats | Notes


 
Aerial photo
No photo
 
Airport distance calculator
Flying to Shepard Strip Airport? Find the distance to fly.

From to 07ID

Sunrise and sunset
Times for 22-Oct-2017
 Local
(UTC-7)
 Zulu
(UTC)
Morning civil twilight06:4713:47
Sunrise07:1914:19
Sunset17:4600:46
Evening civil twilight18:1801:18

Current date and time
Zulu (UTC)  23-Oct-2017 04:16:05
Local (UTC-7)  22-Oct-2017 21:16:05
 
METAR
KSZT 
20nm NE 
230355Z AUTO 23007KT 10SM CLR 08/00 A3029 RMK AO2
KDEW 
21nm SW 
230353Z AUTO 20009KT 10SM CLR 08/02 A3032 RMK AO2 SLP274 T00780022
KCOE 
24nm S 
230356Z AUTO 21012KT 10SM CLR 08/02 A3032 RMK AO2 SLP290 T00780017
KSFF 
31nm SW 
230353Z AUTO 00000KT 10SM CLR 11/02 A3034 RMK AO2 SLP274 T01060022
KGEG 
39nm SW 
230353Z 27012KT 10SM FEW060 BKN250 08/02 A3033 RMK AO2 SLP276 T00830022
TAF
KCOE 
24nm S 
230122Z 2301/2324 23010KT P6SM VCSH BKN040 BKN080 BKN200 FM230300 22011KT P6SM SCT040 SCT200 FM231200 21004KT 5SM BR BKN010 FM231900 20003KT P6SM FEW010
NOTAMs
Click for the latest NOTAMs
NOTAMs are issued by the DoD/FAA and will open in a separate window not controlled by AirNav.

 

 
 

Would you like to see your business listed on this page?

 If your business provides an interesting product or service to pilots, flight crews, aircraft, or users of the Shepard Strip Airport, you should consider listing it here.  To start the listing process, click on the button below
 
Add a business
 

Other Pages about Shepard Strip Airport

Update a link
 
Copyright © AirNav, LLC. All rights reserved. Privacy Policy  Contact